COSMOS 2251 DEB, 34582

Orbit data source: Space-Track

COSMOS 2251 DEB, 34582 is space debris in LEO originally from a launch on Wed, 16 Jun 1993 UTC launched from the Plesetsk Missile And Space Complex (PKMTR). The debris from Iridium 33, an American commercial communications satellite, has been tracked extensively since its accidental collision with the defunct Russian satellite Cosmos 2251 in 2009. This event, occurring at high speed in low Earth orbit (LEO), generated thousands of pieces of space debris, significantly increasing the risk of further collisions. The Iridium 33 debris cloud has impacted space traffic management and orbital debris mitigation strategies, making it a subject of ongoing study in space situational awareness.

Loading next visibility...
Identifier
34582, 1993-036VU
Orbit
LEO
Country
Flag of CISCIS
Related business
Manufacturer
Unknown
Mission
Spacecraft
Bus & Motor
Unknown
Mass
Unknown
Launch date (UTC)
1993-06-16 (33 years ago)
Launch vehicle
Unknown
Launch site
Plesetsk Missile And Space Complex (PKMTR)
Object type
Payload
Rocket body
Debris
Shape & HBR
Unknown shape, 0.1 m
Radar Cross Section
Small (<0.1 m²)

Expand to show TLE details & history
Last TLE update: 19 hours ago

TLE from 19 hours ago
0 COSMOS 2251 DEB
1 34582U 93036VU  26035.44516471  .00002853  00000-0  83638-3 0  9990
2 34582  74.0199 172.4802 0049831 272.0738  87.4713 14.43615128887224
Epoch: 2026-02-04T10:41Z
TLE epoch observation values (Epoch: 2026-02-04T10:41:02.230Z)
Latitude
-0.00003°
Longitude
-122.39074°
Altitude
747.808 km
Speed
7.482 km/s
True Right ascension
11h 29m 55s
True Declination
0° 00' 00"
Sunlit
Object was in full shadow at epoch
Visualization orbit readout
Latitude
Unknown
Longitude
Unknown
Altitude
Unknown
Speed
Unknown
Apparent Right ascension
Unknown
Apparent Declination
Unknown
Sunlit
N/A
Visualization observer readout
Local Sidereal Time
07:30:21
Azimuth
Unknown
Elevation
Unknown
Doppler factor
Unknown
Orbital elements
Apogee altitude
779.687 km
Perigee altitude
708.705 km
Semi-major axis
7,122.333 km
Eccentricity
0.00498
Inclination
74.0199°
RAAN
172.4802°
Arg. of periapsis
272.0738°
True anomaly
88.04191°
Mean anomaly
87.4713°
Eccentric anomaly
87.75659°
Mean motion
3.61085 °/min
Orbital period
99.7 mins
BSTAR
0.00083638
Loading maneuver chart data...
Computing Atmospheric mass density...

Documentation

Showing up to 5 results
|